KPAN

Details ICAO KPAN
Name PAYSON
Region United States
Timezone America/Phoenix (UTC-7.0)
Plans Departing 6
Arriving 7
Stats Elevation 5,157 ft / 1,572 m (AMSL)
Location 34.256834° -111.339348°
Runways 1
Magnetic Variation 10.184° E
Sunrise 2018-05-21 12:20:48 UTC / 2018-05-21 05:20:48 Local
Sunset 2018-05-22 02:26:00 UTC / 2018-05-21 19:26:00 Local
Advertisement - Login to hide

Runways

ID Width Length Bearing (true) Bearing (mag) Surface Threshold Offset Overrun Length
06 75 ft / 23 m 5,402 ft / 1,646 m 75.70° 65.52° Asphalt 0 ft / 0 m 150 ft / 46 m
24 75 ft / 23 m 5,402 ft / 1,646 m 255.71° 245.53° Asphalt 0 ft / 0 m 100 ft / 30 m

Map

Weather


0- 5 10 15 20 25 30 35+ Temperature / ° C

Clouds and Precipitation
Forecast for 2018-05-22 06:00 UTC. Updated an hour ago

Ground ~20,000 ft ~40,000 ft Winds

METAR

KPAN 220635Z AUTO 23003KT 10SM SCT085 17/M03 A2993 RMK AO2

TAF

Not found

Frequencies

Recorded 119.32 MHz AWOS 3
Unicom 122.80 MHz CTAF/UNICOM
Warning: Do not use this data for real-world aviation or navigation. No guarantee of current accuracy is given.